Anchorage, AK

1:27 AM AKDT on March 30, 2017 (GMT -0800)
Ted Stevens Anchorage Int'l Airport

Weather History for PANC - March, 2013

Change the Weather History Date:

Monday, March 18, 2013

  Actual Average Record
Temperature  
Mean Temperature 18 °F 27 °F  
Max Temperature 29 °F 34 °F 47 °F (1998)
Min Temperature 7 °F 19 °F -15 °F (1966)
Degree Days  
Heating Degree Days 47    
Month to date heating degree days 685  
Since 1 July heating degree days 8130  
Cooling Degree Days 0    
Month to date cooling degree days 0  
Year to date cooling degree days 0  
Moisture  
Dew Point 8 °F    
Average Humidity 63    
Maximum Humidity 88    
Minimum Humidity 37    
Precipitation  
Precipitation 0.00 in 0.02 in 0.72 in (1976)
Month to date precipitation 0.28 0.37  
Year to date precipitation 2.73 1.82  
Snow  
Snow 0.00 in 0.30 in 14.30 in (1976)
Month to date snowfall 5.3 6.2  
Since 1 July snowfall 61.4 66.5  
Snow Depth 18.00 in    
Sea Level Pressure  
Sea Level Pressure 29.94 in    
Wind  
Wind Speed 2 mph (SW)    
Max Wind Speed 7 mph    
Max Gust Speed -    
Visibility 10 miles    
Events Fog    
T = Trace of Precipitation, MM = Missing Value Source: NWS Daily Summary

Daily Weather History Graph

Daily Weather History Graph

Search for Another Location

Airport or City:

Trip Planner

Search our weather history database for the weather conditions in past years. The results will help you decide how hot, cold, wet, or windy it might be!

Date:

Astronomy

Mar. 18, 2013 Rise Set
Actual Time 8:06 AM AKDT 8:11 PM AKDT
Civil Twilight 7:23 AM AKDT 8:54 PM AKDT
Nautical Twilight 6:31 AM AKDT 9:46 PM AKDT
Astronomical Twilight 5:35 AM AKDT 10:42 PM AKDT
Moon 10:34 AM AKDT (3/18) 3:56 AM AKDT (3/18)
Length of Visible Light 13h 30m
Length of Day
12h 04m
Waxing Crescent, 42% of the Moon is Illuminated
Mar 18
Waxing Crescent
Mar 19
First Quarter
Mar 27
Full
Apr 2
Last Quarter
Apr 10
New

Hourly Weather History & Observations

Time (AKDT) Temp. Windchill Dew Point Humidity Pressure Visibility Wind Dir Wind Speed Gust Speed Precip Events Conditions
12:53 AM 16.0 °F 8.8 °F 9.0 °F 74% 30.04 in 10.0 mi SSE 4.6 mph - N/A   Clear
1:53 AM 10.9 °F - 7.0 °F 84% 30.02 in 10.0 mi Calm Calm - N/A   Clear
2:53 AM 12.9 °F - 8.1 °F 81% 30.01 in 10.0 mi Calm Calm - N/A   Clear
3:53 AM 14.0 °F 8.2 °F 9.0 °F 80% 30.00 in 10.0 mi Variable 3.5 mph - N/A Fog Clear
4:53 AM 10.0 °F - 5.0 °F 80% 29.99 in 10.0 mi Calm Calm - N/A Fog Partly Cloudy
5:53 AM 8.1 °F 1.4 °F 3.9 °F 83% 29.98 in 10.0 mi SE 3.5 mph - N/A   Clear
6:53 AM 8.1 °F - 3.0 °F 80% 29.97 in 10.0 mi Calm Calm - N/A   Partly Cloudy
7:53 AM 7.0 °F - 1.9 °F 80% 29.97 in 10.0 mi Calm Calm - N/A   Scattered Clouds
8:53 AM 9.0 °F - 3.9 °F 80% 29.96 in 10.0 mi Calm Calm - N/A   Scattered Clouds
9:53 AM 14.0 °F - 10.0 °F 84% 29.96 in 10.0 mi Calm Calm - N/A   Scattered Clouds
10:53 AM 18.0 °F - 12.0 °F 78% 29.96 in 10.0 mi Calm Calm - N/A   Scattered Clouds
11:53 AM 23.0 °F 17.0 °F 9.0 °F 55% 29.95 in 10.0 mi NE 4.6 mph - N/A   Scattered Clouds
12:53 PM 24.1 °F 19.7 °F 8.1 °F 51% 29.95 in 10.0 mi East 3.5 mph - N/A   Mostly Cloudy
1:53 PM 24.1 °F 16.0 °F 7.0 °F 48% 29.94 in 10.0 mi NW 6.9 mph - N/A   Mostly Cloudy
2:53 PM 25.0 °F 19.3 °F 8.1 °F 49% 29.93 in 10.0 mi NW 4.6 mph - 0.00 in   Mostly Cloudy
3:53 PM 25.0 °F 19.3 °F 7.0 °F 46% 29.92 in 10.0 mi West 4.6 mph - N/A   Scattered Clouds
4:53 PM 27.0 °F 23.0 °F 6.1 °F 41% 29.91 in 10.0 mi West 3.5 mph - N/A   Partly Cloudy
5:53 PM 27.0 °F - 3.9 °F 37% 29.90 in 10.0 mi Calm Calm - N/A   Scattered Clouds
6:53 PM 26.1 °F 21.9 °F 9.0 °F 49% 29.89 in 10.0 mi WSW 3.5 mph - N/A   Mostly Cloudy
7:53 PM 24.1 °F 19.7 °F 9.0 °F 53% 29.88 in 10.0 mi SW 3.5 mph - N/A   Scattered Clouds
8:53 PM 21.0 °F - 10.0 °F 63% 29.89 in 10.0 mi Calm Calm - N/A   Scattered Clouds
9:53 PM 16.0 °F - 9.0 °F 74% 29.89 in 10.0 mi Calm Calm - N/A   Clear
10:53 PM 15.1 °F 9.4 °F 8.1 °F 74% 29.89 in 10.0 mi SSE 3.5 mph - N/A   Partly Cloudy
11:53 PM 12.9 °F 5.2 °F 8.1 °F 81% 29.89 in 10.0 mi East 4.6 mph - N/A   Partly Cloudy